| time (UTC) | temp C | wind direction | speed KPH | gust KPH | rain 1hr cm | rain 24hr cm | rain mn cm | humidity % | barometer mb |
| 20260507160042 | 11 | 200 | 1.6 | 6.4 | 0.00 | 0.00 | 0.00 | 79 | 1021.6 |
| 20260507155525 | 11 | 139 | 3.2 | 6.4 | 0.00 | 0.00 | 0.00 | 79 | 1021.6 |
| 20260507155025 | 11 | 168 | 1.6 | 8.0 | 0.00 | 0.00 | 0.00 | 80 | 1021.7 |
| 20260507154542 | 11 | 277 | 3.2 | 8.0 | 0.00 | 0.00 | 0.00 | 79 | 1021.8 |
| 20260507154027 | 11 | 194 | 1.6 | 4.8 | 0.00 | 0.00 | 0.00 | 80 | 1021.7 |
| 20260507153525 | 10 | 248 | 3.2 | 6.4 | 0.00 | 0.00 | 0.00 | 79 | 1021.7 |
| 20260507153045 | 10 | 213 | 3.2 | 6.4 | 0.00 | 0.00 | 0.00 | 81 | 1021.7 |
| 20260507152528 | 10 | 244 | 1.6 | 6.4 | 0.00 | 0.00 | 0.00 | 81 | 1021.7 |
| 20260507152025 | 10 | 238 | 3.2 | 6.4 | 0.00 | 0.00 | 0.00 | 81 | 1021.7 |
| 20260507151541 | 10 | 167 | 1.6 | 4.8 | 0.00 | 0.00 | 0.00 | 82 | 1021.7 |
| 20260507151024 | 10 | 223 | 1.6 | 4.8 | 0.00 | 0.00 | 0.00 | 82 | 1021.6 |
| 20260507150528 | 10 | 208 | 1.6 | 6.4 | 0.00 | 0.00 | 0.00 | 82 | 1021.6 |
| 20260507150042 | 10 | 214 | 1.6 | 9.7 | 0.00 | 0.00 | 0.00 | 83 | 1021.7 |
| 20260507145524 | 10 | 201 | 4.8 | 9.7 | 0.00 | 0.00 | 0.00 | 83 | 1021.7 |
| 20260507145024 | 10 | 190 | 3.2 | 6.4 | 0.00 | 0.00 | 0.00 | 83 | 1021.7 |
| 20260507144542 | 10 | 161 | 3.2 | 6.4 | 0.00 | 0.00 | 0.00 | 84 | 1021.6 |
| 20260507144025 | 10 | 211 | 3.2 | 4.8 | 0.00 | 0.00 | 0.00 | 83 | 1021.6 |
| 20260507143525 | 10 | 223 | 1.6 | 4.8 | 0.00 | 0.00 | 0.00 | 84 | 1021.6 |
| 20260507143044 | 10 | 213 | 1.6 | 6.4 | 0.00 | 0.00 | 0.00 | 85 | 1021.6 |
| 20260507142524 | 9 | 191 | 1.6 | 8.0 | 0.00 | 0.00 | 0.00 | 85 | 1021.6 |
| 20260507142024 | 9 | 164 | 4.8 | 8.0 | 0.00 | 0.00 | 0.00 | 85 | 1021.6 |
| 20260507141604 | 9 | 202 | 4.8 | 9.7 | 0.00 | 0.00 | 0.00 | 85 | 1021.5 |
| 20260507141025 | 9 | 208 | 3.2 | 9.7 | 0.00 | 0.00 | 0.00 | 85 | 1021.5 |
| 20260507140525 | 9 | 162 | 3.2 | 8.0 | 0.00 | 0.00 | 0.00 | 85 | 1021.5 |
| 20260507140044 | 9 | 180 | 3.2 | 8.0 | 0.00 | 0.00 | 0.00 | 85 | 1021.4 |
| 20260507135525 | 9 | 189 | 1.6 | 6.4 | 0.00 | 0.00 | 0.00 | 85 | 1021.5 |
| 20260507135025 | 9 | 207 | 3.2 | 6.4 | 0.00 | 0.00 | 0.00 | 85 | 1021.4 |
| 20260507134544 | 9 | 188 | 1.6 | 8.0 | 0.00 | 0.00 | 0.00 | 85 | 1021.4 |
| 20260507134024 | 9 | 188 | 3.2 | 8.0 | 0.00 | 0.00 | 0.00 | 85 | 1021.3 |
| 20260507133527 | 9 | 149 | 1.6 | 4.8 | 0.00 | 0.00 | 0.00 | 85 | 1021.3 |
| 20260507133042 | 8 | 244 | 3.2 | 8.0 | 0.00 | 0.00 | 0.00 | 86 | 1021.3 |
| 20260507132529 | 8 | 193 | 1.6 | 8.0 | 0.00 | 0.00 | 0.00 | 86 | 1021.1 |
| 20260507132026 | 8 | 200 | 0.0 | 4.8 | 0.00 | 0.00 | 0.00 | 87 | 1021.2 |
| 20260507131539 | 8 | 228 | 0.0 | 4.8 | 0.00 | 0.00 | 0.00 | 86 | 1021.3 |
| 20260507131027 | 8 | 163 | 1.6 | 6.4 | 0.00 | 0.00 | 0.00 | 86 | 1021.2 |
| 20260507130526 | 8 | 177 | 3.2 | 6.4 | 0.00 | 0.00 | 0.00 | 86 | 1021.2 |
| 20260507130039 | 8 | 182 | 3.2 | 6.4 | 0.00 | 0.00 | 0.00 | 86 | 1021.2 |
| 20260507125529 | 8 | 186 | 3.2 | 6.4 | 0.00 | 0.00 | 0.00 | 86 | 1021.1 |
| 20260507125027 | 8 | 175 | 1.6 | 3.2 | 0.00 | 0.00 | 0.00 | 86 | 1021.1 |
| 20260507124547 | 8 | 184 | 0.0 | 3.2 | 0.00 | 0.00 | 0.00 | 86 | 1021.1 |
| 20260507124027 | 8 | 196 | 1.6 | 6.4 | 0.00 | 0.00 | 0.00 | 85 | 1021.1 |
| 20260507123527 | 9 | 205 | 1.6 | 6.4 | 0.00 | 0.00 | 0.00 | 85 | 1021.1 |
| 20260507123045 | 8 | 207 | 1.6 | 6.4 | 0.00 | 0.00 | 0.00 | 86 | 1021.1 |
| 20260507122527 | 8 | 197 | 1.6 | 6.4 | 0.00 | 0.00 | 0.00 | 87 | 1021.2 |
| 20260507122027 | 8 | 177 | 0.0 | 4.8 | 0.00 | 0.00 | 0.00 | 86 | 1021.3 |
| 20260507121544 | 8 | 177 | 1.6 | 4.8 | 0.00 | 0.00 | 0.00 | 86 | 1021.2 |
| 20260507121027 | 8 | 153 | 1.6 | 4.8 | 0.00 | 0.00 | 0.00 | 86 | 1021.3 |
| 20260507120526 | 8 | 164 | 1.6 | 6.4 | 0.00 | 0.00 | 0.00 | 85 | 1021.2 |
| 20260507120046 | 8 | 177 | 3.2 | 8.0 | 0.00 | 0.00 | 0.00 | 85 | 1021.3 |
| 20260507115527 | 9 | 188 | 4.8 | 8.0 | 0.00 | 0.00 | 0.00 | 85 | 1021.4 |
| 20260507115026 | 9 | 151 | 1.6 | 6.4 | 0.00 | 0.00 | 0.00 | 85 | 1021.4 |
| 20260507114542 | 9 | 168 | 3.2 | 6.4 | 0.00 | 0.00 | 0.00 | 85 | 1021.5 |
| 20260507114027 | 9 | 221 | 1.6 | 8.0 | 0.00 | 0.00 | 0.00 | 85 | 1021.5 |
| 20260507113527 | 9 | 201 | 3.2 | 8.0 | 0.00 | 0.00 | 0.00 | 85 | 1021.4 |
| 20260507113046 | 9 | 206 | 3.2 | 6.4 | 0.00 | 0.00 | 0.00 | 85 | 1021.3 |
| 20260507112526 | 9 | 196 | 3.2 | 8.0 | 0.00 | 0.00 | 0.00 | 85 | 1021.4 |
| 20260507112026 | 9 | 193 | 3.2 | 8.0 | 0.00 | 0.00 | 0.00 | 85 | 1021.4 |
| 20260507111539 | 10 | 185 | 3.2 | 6.4 | 0.00 | 0.00 | 0.00 | 85 | 1021.6 |
| 20260507111026 | 10 | 225 | 4.8 | 6.4 | 0.00 | 0.00 | 0.00 | 85 | 1021.6 |
| 20260507110528 | 10 | 180 | 3.2 | 6.4 | 0.00 | 0.00 | 0.00 | 85 | 1021.6 |
| 20260507110046 | 10 | 220 | 3.2 | 8.0 | 0.00 | 0.00 | 0.00 | 85 | 1021.6 |
| 20260507105527 | 10 | 208 | 3.2 | 8.0 | 0.00 | 0.00 | 0.00 | 84 | 1021.7 |
| 20260507105027 | 10 | 227 | 1.6 | 6.4 | 0.00 | 0.00 | 0.00 | 84 | 1021.5 |
| 20260507104542 | 10 | 237 | 3.2 | 6.4 | 0.00 | 0.00 | 0.00 | 85 | 1021.6 |
| 20260507104027 | 10 | 163 | 3.2 | 8.0 | 0.00 | 0.00 | 0.00 | 85 | 1021.6 |
| 20260507103527 | 10 | 215 | 4.8 | 11.3 | 0.00 | 0.00 | 0.00 | 85 | 1021.6 |
| 20260507103041 | 10 | 205 | 6.4 | 11.3 | 0.00 | 0.00 | 0.00 | 85 | 1021.7 |
| 20260507102528 | 10 | 210 | 4.8 | 9.7 | 0.00 | 0.00 | 0.00 | 84 | 1021.6 |
| 20260507102028 | 10 | 211 | 4.8 | 9.7 | 0.00 | 0.00 | 0.00 | 84 | 1021.7 |
| 20260507101541 | 10 | 195 | 3.2 | 9.7 | 0.00 | 0.00 | 0.00 | 84 | 1021.7 |
| 20260507101026 | 10 | 177 | 3.2 | 9.7 | 0.00 | 0.00 | 0.00 | 85 | 1021.7 |
| 20260507100526 | 10 | 209 | 6.4 | 9.7 | 0.00 | 0.00 | 0.00 | 85 | 1021.7 |
| 20260507100042 | 10 | 222 | 4.8 | 9.7 | 0.00 | 0.00 | 0.00 | 84 | 1021.7 |
| 20260507095526 | 10 | 201 | 3.2 | 8.0 | 0.00 | 0.00 | 0.00 | 84 | 1021.8 |
| 20260507095027 | 10 | 216 | 3.2 | 8.0 | 0.00 | 0.00 | 0.00 | 84 | 1021.7 |
| 20260507094544 | 10 | 219 | 4.8 | 8.0 | 0.00 | 0.00 | 0.00 | 84 | 1021.7 |
| 20260507094026 | 10 | 199 | 3.2 | 9.7 | 0.00 | 0.00 | 0.00 | 85 | 1021.8 |
| 20260507093529 | 10 | 196 | 3.2 | 9.7 | 0.00 | 0.00 | 0.00 | 85 | 1021.8 |
| 20260507093044 | 10 | 216 | 3.2 | 9.7 | 0.00 | 0.00 | 0.00 | 84 | 1021.9 |
| 20260507092526 | 10 | 220 | 4.8 | 9.7 | 0.00 | 0.00 | 0.00 | 85 | 1021.9 |
| 20260507092030 | 10 | 184 | 3.2 | 8.0 | 0.00 | 0.00 | 0.00 | 85 | 1021.9 |
| 20260507091545 | 10 | 227 | 4.8 | 8.0 | 0.00 | 0.00 | 0.00 | 85 | 1021.9 |
| 20260507091028 | 10 | 195 | 4.8 | 8.0 | 0.00 | 0.00 | 0.00 | 85 | 1021.8 |
| 20260507090527 | 10 | 196 | 4.8 | 8.0 | 0.00 | 0.00 | 0.00 | 85 | 1021.9 |
| 20260507090044 | 10 | 205 | 3.2 | 11.3 | 0.00 | 0.00 | 0.00 | 85 | 1022.0 |
| 20260507085526 | 10 | 214 | 3.2 | 11.3 | 0.00 | 0.00 | 0.00 | 85 | 1022.0 |
| 20260507085028 | 10 | 196 | 6.4 | 11.3 | 0.00 | 0.00 | 0.00 | 85 | 1022.1 |
| 20260507084540 | 10 | 165 | 6.4 | 11.3 | 0.00 | 0.00 | 0.00 | 85 | 1022.0 |
| 20260507084026 | 10 | 236 | 6.4 | 11.3 | 0.00 | 0.00 | 0.00 | 85 | 1022.0 |
| 20260507083527 | 10 | 199 | 6.4 | 11.3 | 0.00 | 0.00 | 0.00 | 85 | 1022.0 |
| 20260507083040 | 10 | 206 | 6.4 | 11.3 | 0.00 | 0.00 | 0.00 | 85 | 1022.1 |
| 20260507082528 | 10 | 224 | 4.8 | 11.3 | 0.00 | 0.00 | 0.00 | 86 | 1022.1 |
| 20260507082026 | 10 | 221 | 6.4 | 12.9 | 0.00 | 0.00 | 0.00 | 85 | 1022.0 |
| 20260507081544 | 10 | 213 | 6.4 | 12.9 | 0.00 | 0.00 | 0.00 | 85 | 1022.0 |
| 20260507081026 | 10 | 213 | 4.8 | 12.9 | 0.00 | 0.00 | 0.00 | 85 | 1022.0 |
| 20260507080526 | 10 | 216 | 6.4 | 12.9 | 0.00 | 0.00 | 0.00 | 85 | 1021.9 |
| 20260507080044 | 10 | 219 | 8.0 | 12.9 | 0.00 | 0.00 | 0.00 | 85 | 1021.9 |
| 20260507075526 | 10 | 202 | 8.0 | 14.5 | 0.00 | 0.00 | 0.00 | 85 | 1021.9 |
| 20260507075027 | 10 | 215 | 4.8 | 14.5 | 0.00 | 0.00 | 0.00 | 85 | 1022.0 |
| 20260507074543 | 10 | 168 | 4.8 | 12.9 | 0.00 | 0.00 | 0.00 | 85 | 1022.0 |
| 20260507074028 | 11 | 202 | 8.0 | 12.9 | 0.00 | 0.00 | 0.00 | 85 | 1021.9 |
| 20260507073526 | 11 | 216 | 6.4 | 12.9 | 0.00 | 0.00 | 0.00 | 85 | 1022.0 |
| 20260507073050 | 10 | 210 | 4.8 | 11.3 | 0.00 | 0.00 | 0.00 | 85 | 1021.9 |
| 20260507072527 | 11 | 202 | 4.8 | 11.3 | 0.00 | 0.00 | 0.00 | 85 | 1021.9 |
| 20260507072027 | 11 | 219 | 4.8 | 11.3 | 0.00 | 0.00 | 0.00 | 85 | 1021.9 |
| 20260507071540 | 11 | 189 | 6.4 | 11.3 | 0.00 | 0.00 | 0.00 | 84 | 1021.9 |
| 20260507071026 | 11 | 218 | 6.4 | 11.3 | 0.00 | 0.00 | 0.00 | 84 | 1021.9 |
| 20260507070527 | 11 | 202 | 4.8 | 11.3 | 0.00 | 0.00 | 0.00 | 84 | 1021.9 |
| 20260507070043 | 11 | 209 | 6.4 | 11.3 | 0.00 | 0.00 | 0.00 | 85 | 1021.8 |
| 20260507065526 | 11 | 190 | 6.4 | 9.7 | 0.00 | 0.00 | 0.00 | 84 | 1022.0 |
| 20260507065026 | 11 | 198 | 6.4 | 12.9 | 0.00 | 0.00 | 0.00 | 84 | 1022.0 |
| 20260507064546 | 11 | 195 | 6.4 | 12.9 | 0.00 | 0.00 | 0.00 | 84 | 1022.0 |
| 20260507064027 | 11 | 219 | 6.4 | 12.9 | 0.00 | 0.00 | 0.00 | 84 | 1022.0 |
| 20260507063526 | 11 | 197 | 6.4 | 11.3 | 0.00 | 0.00 | 0.00 | 84 | 1022.0 |
| 20260507063046 | 11 | 182 | 3.2 | 9.7 | 0.00 | 0.00 | 0.00 | 84 | 1022.0 |
| 20260507062531 | 11 | 205 | 4.8 | 9.7 | 0.00 | 0.00 | 0.00 | 84 | 1022.0 |
| 20260507062026 | 11 | 211 | 3.2 | 6.4 | 0.00 | 0.00 | 0.00 | 84 | 1022.1 |
| 20260507061542 | 11 | 200 | 3.2 | 8.0 | 0.00 | 0.00 | 0.00 | 84 | 1022.1 |
| 20260507061026 | 11 | 185 | 4.8 | 9.7 | 0.00 | 0.00 | 0.00 | 84 | 1022.2 |
| 20260507060526 | 11 | 189 | 3.2 | 9.7 | 0.00 | 0.00 | 0.00 | 83 | 1022.1 |
| 20260507060043 | 11 | 181 | 3.2 | 9.7 | 0.00 | 0.00 | 0.00 | 82 | 1022.1 |
| 20260507055528 | 11 | 204 | 4.8 | 9.7 | 0.00 | 0.00 | 0.00 | 82 | 1022.1 |
| 20260507055027 | 11 | 184 | 4.8 | 11.3 | 0.00 | 0.00 | 0.00 | 82 | 1022.1 |
| 20260507054540 | 11 | 188 | 6.4 | 11.3 | 0.00 | 0.00 | 0.00 | 82 | 1022.1 |
| 20260507054028 | 11 | 226 | 4.8 | 11.3 | 0.00 | 0.00 | 0.00 | 82 | 1022.2 |
| 20260507053526 | 11 | 217 | 4.8 | 11.3 | 0.00 | 0.00 | 0.00 | 82 | 1022.0 |
| 20260507053041 | 11 | 202 | 4.8 | 11.3 | 0.00 | 0.00 | 0.00 | 82 | 1022.1 |
| 20260507052526 | 11 | 200 | 3.2 | 11.3 | 0.00 | 0.00 | 0.00 | 82 | 1022.1 |
| 20260507052029 | 11 | 211 | 4.8 | 9.7 | 0.00 | 0.00 | 0.00 | 82 | 1022.1 |
| 20260507051540 | 11 | 207 | 4.8 | 8.0 | 0.00 | 0.00 | 0.00 | 82 | 1022.1 |
| 20260507051030 | 11 | 226 | 3.2 | 12.9 | 0.00 | 0.00 | 0.00 | 82 | 1022.2 |
| 20260507050526 | 11 | 194 | 6.4 | 12.9 | 0.00 | 0.00 | 0.00 | 82 | 1022.2 |
| 20260507050045 | 11 | 203 | 4.8 | 11.3 | 0.00 | 0.00 | 0.00 | 82 | 1022.1 |
| 20260507045526 | 11 | 193 | 6.4 | 11.3 | 0.00 | 0.00 | 0.00 | 83 | 1022.3 |
| 20260507045026 | 11 | 159 | 4.8 | 9.7 | 0.00 | 0.00 | 0.00 | 84 | 1022.2 |
| 20260507044542 | 11 | 234 | 4.8 | 9.7 | 0.00 | 0.00 | 0.00 | 84 | 1022.2 |
| 20260507044025 | 11 | 195 | 3.2 | 8.0 | 0.00 | 0.00 | 0.00 | 84 | 1022.3 |
| 20260507043526 | 11 | 203 | 3.2 | 11.3 | 0.00 | 0.00 | 0.00 | 84 | 1022.2 |
| 20260507043044 | 11 | 213 | 6.4 | 11.3 | 0.00 | 0.00 | 0.00 | 84 | 1022.2 |
| 20260507042526 | 11 | 196 | 4.8 | 9.7 | 0.00 | 0.00 | 0.00 | 84 | 1022.1 |
| 20260507042026 | 11 | 242 | 3.2 | 9.7 | 0.00 | 0.00 | 0.00 | 84 | 1022.1 |
| 20260507041545 | 11 | 227 | 4.8 | 9.7 | 0.00 | 0.00 | 0.00 | 83 | 1022.1 |
| 20260507041026 | 11 | 202 | 4.8 | 11.3 | 0.00 | 0.00 | 0.00 | 83 | 1022.1 |
| 20260507040527 | 12 | 148 | 4.8 | 11.3 | 0.00 | 0.00 | 0.00 | 82 | 1022.0 |
| 20260507040042 | 12 | 247 | 4.8 | 9.7 | 0.00 | 0.00 | 0.00 | 83 | 1021.9 |
| 20260507035526 | 12 | 216 | 1.6 | 4.8 | 0.00 | 0.00 | 0.00 | 83 | 1021.9 |
| 20260507035026 | 12 | 226 | 1.6 | 14.5 | 0.00 | 0.00 | 0.00 | 84 | 1021.9 |
| 20260507034603 | 12 | 240 | 3.2 | 14.5 | 0.00 | 0.00 | 0.00 | 83 | 1021.9 |
| 20260507034027 | 12 | 200 | 3.2 | 14.5 | 0.00 | 0.00 | 0.00 | 84 | 1021.9 |
| 20260507033526 | 12 | 271 | 4.8 | 14.5 | 0.00 | 0.00 | 0.00 | 84 | 1021.8 |
| 20260507033100 | 12 | 229 | 4.8 | 14.5 | 0.00 | 0.00 | 0.00 | 84 | 1021.8 |
| 20260507032526 | 12 | 236 | 4.8 | 9.7 | 0.00 | 0.00 | 0.00 | 85 | 1021.8 |
| 20260507032025 | 12 | 208 | 1.6 | 9.7 | 0.00 | 0.00 | 0.00 | 85 | 1021.6 |
| 20260507031542 | 12 | 209 | 4.8 | 9.7 | 0.00 | 0.00 | 0.00 | 85 | 1021.6 |
| 20260507031026 | 12 | 219 | 3.2 | 8.0 | 0.00 | 0.00 | 0.00 | 85 | 1021.6 |
| 20260507030526 | 12 | 198 | 3.2 | 14.5 | 0.00 | 0.00 | 0.00 | 85 | 1021.5 |
| 20260507030041 | 12 | 173 | 4.8 | 14.5 | 0.00 | 0.00 | 0.00 | 84 | 1021.5 |
| 20260507025525 | 12 | 252 | 8.0 | 14.5 | 0.00 | 0.00 | 0.00 | 84 | 1021.4 |
| 20260507025026 | 12 | 182 | 4.8 | 11.3 | 0.00 | 0.00 | 0.00 | 84 | 1021.3 |
| 20260507024551 | 12 | 209 | 6.4 | 11.3 | 0.00 | 0.00 | 0.00 | 85 | 1021.4 |
| 20260507024026 | 12 | 191 | 4.8 | 9.7 | 0.00 | 0.00 | 0.00 | 85 | 1021.4 |
| 20260507023526 | 12 | 175 | 4.8 | 16.1 | 0.00 | 0.00 | 0.00 | 84 | 1021.3 |
| 20260507023040 | 12 | 234 | 1.6 | 16.1 | 0.00 | 0.00 | 0.00 | 84 | 1021.3 |
| 20260507022526 | 12 | 254 | 6.4 | 16.1 | 0.00 | 0.00 | 0.00 | 85 | 1021.3 |
| 20260507022028 | 12 | 195 | 4.8 | 9.7 | 0.00 | 0.00 | 0.00 | 85 | 1021.2 |
| 20260507021547 | 12 | 224 | 3.2 | 11.3 | 0.00 | 0.00 | 0.00 | 85 | 1021.4 |
| 20260507021026 | 12 | 215 | 6.4 | 14.5 | 0.00 | 0.00 | 0.00 | 84 | 1021.5 |
| 20260507020526 | 12 | 217 | 4.8 | 14.5 | 0.00 | 0.00 | 0.00 | 84 | 1021.4 |
| 20260507020042 | 12 | 213 | 6.4 | 14.5 | 0.00 | 0.00 | 0.00 | 84 | 1021.4 |
| 20260507015526 | 12 | 196 | 8.0 | 14.5 | 0.00 | 0.00 | 0.00 | 84 | 1021.4 |
| 20260507015026 | 12 | 196 | 8.0 | 14.5 | 0.00 | 0.00 | 0.00 | 84 | 1021.5 |
| 20260507014540 | 12 | 202 | 8.0 | 17.7 | 0.00 | 0.00 | 0.00 | 83 | 1021.4 |
| 20260507014026 | 12 | 202 | 9.7 | 17.7 | 0.00 | 0.00 | 0.00 | 83 | 1021.5 |
| 20260507013525 | 13 | 224 | 6.4 | 14.5 | 0.00 | 0.00 | 0.00 | 83 | 1021.5 |
| 20260507013041 | 13 | 163 | 4.8 | 19.3 | 0.00 | 0.00 | 0.00 | 82 | 1021.5 |
| 20260507012525 | 13 | 202 | 6.4 | 22.5 | 0.00 | 0.00 | 0.00 | 82 | 1021.4 |
| 20260507012026 | 13 | 204 | 9.7 | 24.1 | 0.00 | 0.00 | 0.00 | 81 | 1021.4 |
| 20260507011541 | 13 | 248 | 8.0 | 24.1 | 0.00 | 0.00 | 0.00 | 81 | 1021.4 |
| 20260507011025 | 13 | 221 | 9.7 | 19.3 | 0.00 | 0.00 | 0.00 | 81 | 1021.4 |
| 20260507010530 | 13 | 236 | 8.0 | 17.7 | 0.00 | 0.00 | 0.00 | 81 | 1021.5 |
| 20260507010041 | 13 | 200 | 4.8 | 19.3 | 0.00 | 0.00 | 0.00 | 81 | 1021.4 |
| 20260507005527 | 13 | 250 | 8.0 | 19.3 | 0.00 | 0.00 | 0.00 | 81 | 1021.3 |
| 20260507005026 | 13 | 240 | 6.4 | 14.5 | 0.00 | 0.00 | 0.00 | 81 | 1021.3 |
| 20260507004539 | 13 | 242 | 6.4 | 16.1 | 0.00 | 0.00 | 0.00 | 81 | 1021.3 |
| 20260507004026 | 13 | 214 | 4.8 | 16.1 | 0.00 | 0.00 | 0.00 | 81 | 1021.3 |
| 20260507003529 | 13 | 254 | 8.0 | 14.5 | 0.00 | 0.00 | 0.00 | 81 | 1021.3 |
| 20260507003043 | 13 | 215 | 4.8 | 19.3 | 0.00 | 0.00 | 0.00 | 81 | 1021.3 |
| 20260507002528 | 13 | 243 | 9.7 | 19.3 | 0.00 | 0.00 | 0.00 | 80 | 1021.4 |
| 20260507002026 | 13 | 211 | 4.8 | 14.5 | 0.00 | 0.00 | 0.00 | 80 | 1021.4 |
| 20260507001604 | 13 | 228 | 4.8 | 16.1 | 0.00 | 0.00 | 0.00 | 80 | 1021.3 |
| 20260507001025 | 13 | 198 | 6.4 | 16.1 | 0.00 | 0.00 | 0.00 | 80 | 1021.4 |
| 20260507000526 | 13 | 246 | 6.4 | 16.1 | 0.00 | 0.00 | 0.00 | 80 | 1021.5 |
| 20260507000042 | 14 | 192 | 9.7 | 14.5 | 0.00 | 0.00 | 0.00 | 80 | 1021.5 |
| 20260506235526 | 14 | 237 | 4.8 | 17.7 | 0.00 | 0.00 | 0.00 | 80 | 1021.6 |
| 20260506235028 | 14 | 242 | 6.4 | 19.3 | 0.00 | 0.00 | 0.00 | 80 | 1021.5 |
| 20260506234549 | 13 | 231 | 9.7 | 19.3 | 0.00 | 0.00 | 0.00 | 79 | 1021.7 |
| 20260506234026 | 13 | 205 | 4.8 | 12.9 | 0.00 | 0.00 | 0.00 | 79 | 1021.6 |
| 20260506233525 | 13 | 187 | 6.4 | 12.9 | 0.00 | 0.00 | 0.00 | 80 | 1021.7 |
| 20260506233040 | 13 | 260 | 6.4 | 17.7 | 0.00 | 0.00 | 0.00 | 81 | 1021.6 |
| 20260506232525 | 13 | 215 | 8.0 | 19.3 | 0.00 | 0.00 | 0.00 | 80 | 1021.7 |
| 20260506232027 | 13 | 211 | 8.0 | 19.3 | 0.00 | 0.00 | 0.00 | 81 | 1021.6 |
| 20260506231538 | 13 | 221 | 8.0 | 17.7 | 0.00 | 0.00 | 0.00 | 80 | 1021.5 |
| 20260506231026 | 13 | 265 | 6.4 | 17.7 | 0.00 | 0.00 | 0.00 | 81 | 1021.6 |
| 20260506230525 | 13 | 181 | 6.4 | 17.7 | 0.00 | 0.00 | 0.00 | 81 | 1021.6 |
| 20260506230045 | 13 | 151 | 11.3 | 25.7 | 0.00 | 0.00 | 0.00 | 80 | 1021.6 |
| 20260506225526 | 13 | 235 | 8.0 | 25.7 | 0.00 | 0.00 | 0.00 | 80 | 1021.6 |
| 20260506225026 | 13 | 202 | 14.5 | 25.7 | 0.00 | 0.00 | 0.00 | 79 | 1021.6 |
| 20260506224600 | 13 | 205 | 11.3 | 25.7 | 0.00 | 0.00 | 0.00 | 80 | 1021.5 |
| 20260506224025 | 13 | 194 | 9.7 | 24.1 | 0.00 | 0.00 | 0.00 | 81 | 1021.6 |
| 20260506223525 | 13 | 257 | 9.7 | 20.9 | 0.00 | 0.00 | 0.00 | 81 | 1021.6 |
| 20260506223040 | 13 | 161 | 12.9 | 24.1 | 0.00 | 0.00 | 0.00 | 81 | 1021.7 |
| 20260506222527 | 13 | 215 | 11.3 | 24.1 | 0.00 | 0.00 | 0.00 | 80 | 1021.8 |
| 20260506222026 | 13 | 221 | 9.7 | 24.1 | 0.00 | 0.00 | 0.00 | 81 | 1021.9 |
| 20260506221541 | 13 | 228 | 11.3 | 32.2 | 0.00 | 0.00 | 0.00 | 80 | 1021.8 |
| 20260506221026 | 13 | 215 | 9.7 | 32.2 | 0.00 | 0.00 | 0.00 | 80 | 1021.8 |
| 20260506220525 | 13 | 193 | 11.3 | 22.5 | 0.00 | 0.00 | 0.00 | 80 | 1021.9 |
| 20260506220045 | 13 | 220 | 9.7 | 22.5 | 0.00 | 0.00 | 0.00 | 80 | 1021.9 |
| 20260506215526 | 13 | 189 | 8.0 | 19.3 | 0.00 | 0.00 | 0.00 | 81 | 1021.8 |
| 20260506215025 | 13 | 236 | 12.9 | 17.7 | 0.00 | 0.00 | 0.00 | 80 | 1021.8 |
| 20260506214617 | 13 | 220 | 6.4 | 19.3 | 0.00 | 0.00 | 0.00 | 80 | 1021.7 |
| 20260506214028 | 13 | 250 | 11.3 | 19.3 | 0.00 | 0.00 | 0.00 | 79 | 1021.8 |
| 20260506213525 | 13 | 225 | 4.8 | 19.3 | 0.00 | 0.00 | 0.00 | 80 | 1021.9 |
| 20260506213042 | 13 | 159 | 9.7 | 19.3 | 0.00 | 0.00 | 0.00 | 80 | 1021.9 |
| 20260506212527 | 13 | 271 | 9.7 | 19.3 | 0.00 | 0.00 | 0.00 | 80 | 1021.9 |
| 20260506212026 | 13 | 254 | 6.4 | 29.0 | 0.00 | 0.00 | 0.00 | 81 | 1021.9 |
| 20260506211550 | 13 | 194 | 8.0 | 29.0 | 0.00 | 0.00 | 0.00 | 82 | 1022.0 |
| 20260506211026 | 13 | 190 | 11.3 | 19.3 | 0.00 | 0.00 | 0.00 | 82 | 1021.9 |
| 20260506210525 | 13 | 127 | 9.7 | 20.9 | 0.00 | 0.00 | 0.00 | 81 | 1022.0 |
| 20260506210042 | 13 | 254 | 9.7 | 20.9 | 0.00 | 0.00 | 0.00 | 80 | 1022.0 |
| 20260506205525 | 13 | 232 | 6.4 | 17.7 | 0.00 | 0.00 | 0.00 | 81 | 1021.9 |
| 20260506205025 | 13 | 246 | 9.7 | 17.7 | 0.00 | 0.00 | 0.00 | 80 | 1021.9 |
| 20260506204540 | 13 | 209 | 9.7 | 17.7 | 0.00 | 0.00 | 0.00 | 81 | 1022.0 |
| 20260506204026 | 13 | 197 | 8.0 | 14.5 | 0.00 | 0.00 | 0.00 | 80 | 1022.0 |
| 20260506203525 | 13 | 227 | 4.8 | 14.5 | 0.00 | 0.00 | 0.00 | 81 | 1021.8 |
| 20260506203040 | 13 | 267 | 6.4 | 22.5 | 0.00 | 0.00 | 0.00 | 81 | 1021.7 |
| 20260506202525 | 13 | 219 | 9.7 | 22.5 | 0.00 | 0.00 | 0.00 | 80 | 1021.7 |
| 20260506202025 | 13 | 222 | 8.0 | 20.9 | 0.00 | 0.00 | 0.00 | 80 | 1021.8 |
| 20260506201540 | 13 | 283 | 9.7 | 17.7 | 0.00 | 0.00 | 0.00 | 79 | 1021.8 |
| 20260506201028 | 13 | 255 | 8.0 | 16.1 | 0.00 | 0.00 | 0.00 | 80 | 1021.7 |
| 20260506200528 | 13 | 189 | 9.7 | 16.1 | 0.00 | 0.00 | 0.00 | 79 | 1021.6 |
| 20260506200038 | 13 | 267 | 8.0 | 14.5 | 0.00 | 0.00 | 0.00 | 80 | 1021.7 |
| 20260506195530 | 13 | 228 | 4.8 | 17.7 | 0.00 | 0.00 | 0.00 | 81 | 1021.6 |
| 20260506195025 | 13 | 249 | 6.4 | 17.7 | 0.00 | 0.00 | 0.00 | 81 | 1021.5 |
| 20260506194546 | 13 | 193 | 4.8 | 24.1 | 0.00 | 0.00 | 0.00 | 81 | 1021.5 |
| 20260506194028 | 13 | 247 | 11.3 | 24.1 | 0.00 | 0.00 | 0.00 | 80 | 1021.5 |
| 20260506193525 | 13 | 216 | 8.0 | 19.3 | 0.00 | 0.00 | 0.00 | 81 | 1021.5 |
| 20260506193048 | 13 | 201 | 9.7 | 19.3 | 0.00 | 0.00 | 0.00 | 81 | 1021.5 |
| 20260506192526 | 13 | 211 | 9.7 | 22.5 | 0.00 | 0.00 | 0.00 | 80 | 1021.5 |
| 20260506192026 | 12 | 220 | 9.7 | 22.5 | 0.00 | 0.00 | 0.00 | 81 | 1021.5 |
| 20260506191542 | 12 | 241 | 9.7 | 22.5 | 0.00 | 0.00 | 0.00 | 81 | 1021.4 |
| 20260506191026 | 12 | 246 | 9.7 | 22.5 | 0.00 | 0.00 | 0.00 | 81 | 1021.4 |
| 20260506190526 | 12 | 222 | 9.7 | 22.5 | 0.00 | 0.00 | 0.00 | 81 | 1021.4 |
| 20260506190041 | 12 | 225 | 9.7 | 19.3 | 0.00 | 0.00 | 0.00 | 82 | 1021.5 |
| 20260506185525 | 12 | 233 | 9.7 | 19.3 | 0.00 | 0.00 | 0.00 | 82 | 1021.6 |
| 20260506185030 | 12 | 183 | 6.4 | 12.9 | 0.00 | 0.00 | 0.00 | 83 | 1021.5 |
| 20260506184546 | 12 | 254 | 4.8 | 16.1 | 0.00 | 0.00 | 0.00 | 83 | 1021.5 |
| 20260506184033 | 12 | 247 | 8.0 | 17.7 | 0.00 | 0.00 | 0.00 | 83 | 1021.4 |
| 20260506183529 | 12 | 225 | 8.0 | 17.7 | 0.00 | 0.00 | 0.00 | 82 | 1021.4 |
| 20260506183043 | 12 | 238 | 8.0 | 19.3 | 0.00 | 0.00 | 0.00 | 82 | 1021.4 |
| 20260506182526 | 12 | 190 | 8.0 | 19.3 | 0.00 | 0.00 | 0.00 | 81 | 1021.5 |
| 20260506182026 | 12 | 238 | 9.7 | 20.9 | 0.00 | 0.00 | 0.00 | 82 | 1021.4 |
| 20260506181557 | 12 | 232 | 8.0 | 20.9 | 0.00 | 0.00 | 0.00 | 81 | 1021.3 |
| 20260506181026 | 13 | 225 | 9.7 | 16.1 | 0.00 | 0.00 | 0.00 | 81 | 1021.3 |
| 20260506180526 | 13 | 199 | 8.0 | 22.5 | 0.00 | 0.00 | 0.00 | 81 | 1021.1 |
| 20260506180043 | 13 | 222 | 11.3 | 22.5 | 0.00 | 0.00 | 0.00 | 80 | 1021.1 |
| 20260506175527 | 13 | 216 | 8.0 | 17.7 | 0.00 | 0.00 | 0.00 | 81 | 1021.0 |
| 20260506175025 | 13 | 246 | 8.0 | 19.3 | 0.00 | 0.00 | 0.00 | 81 | 1021.4 |
| 20260506174538 | 13 | 257 | 4.8 | 20.9 | 0.00 | 0.00 | 0.00 | 81 | 1021.2 |
| 20260506174025 | 13 | 254 | 9.7 | 20.9 | 0.00 | 0.00 | 0.00 | 81 | 1021.1 |
| 20260506173525 | 13 | 228 | 9.7 | 20.9 | 0.00 | 0.00 | 0.00 | 79 | 1021.0 |
| 20260506173054 | 13 | 198 | 11.3 | 22.5 | 0.00 | 0.00 | 0.00 | 79 | 1020.9 |
| 20260506172526 | 13 | 229 | 9.7 | 22.5 | 0.00 | 0.00 | 0.00 | 81 | 1021.0 |
| 20260506172025 | 13 | 254 | 8.0 | 20.9 | 0.00 | 0.00 | 0.00 | 80 | 1021.0 |
| 20260506171546 | 13 | 252 | 11.3 | 20.9 | 0.00 | 0.00 | 0.00 | 80 | 1021.0 |
| 20260506171025 | 13 | 238 | 6.4 | 19.3 | 0.00 | 0.00 | 0.00 | 81 | 1021.0 |
| 20260506170525 | 12 | 249 | 8.0 | 19.3 | 0.00 | 0.00 | 0.00 | 81 | 1021.1 |
| 20260506170050 | 12 | 224 | 4.8 | 11.3 | 0.00 | 0.00 | 0.00 | 81 | 1021.1 |
| 20260506165525 | 12 | 273 | 4.8 | 14.5 | 0.00 | 0.00 | 0.00 | 82 | 1021.0 |
| 20260506165025 | 12 | 257 | 8.0 | 14.5 | 0.00 | 0.00 | 0.00 | 81 | 1021.0 |
| 20260506164542 | 12 | 260 | 6.4 | 16.1 | 0.00 | 0.00 | 0.00 | 82 | 1021.0 |
| 20260506164028 | 12 | 215 | 4.8 | 16.1 | 0.00 | 0.00 | 0.00 | 81 | 1020.9 |
| 20260506163526 | 12 | 235 | 4.8 | 12.9 | 0.00 | 0.00 | 0.00 | 82 | 1021.0 |
| 20260506163043 | 12 | 237 | 4.8 | 12.9 | 0.00 | 0.00 | 0.00 | 83 | 1021.0 |
| 20260506162525 | 12 | 242 | 4.8 | 12.9 | 0.00 | 0.00 | 0.00 | 83 | 1020.8 |
| 20260506162025 | 12 | 202 | 8.0 | 12.9 | 0.00 | 0.00 | 0.00 | 83 | 1020.8 |
| 20260506161542 | 12 | 209 | 3.2 | 12.9 | 0.00 | 0.00 | 0.00 | 84 | 1020.7 |
| 20260506161025 | 12 | 217 | 4.8 | 12.9 | 0.00 | 0.00 | 0.00 | 85 | 1020.6 |
| 20260506160527 | 12 | 223 | 4.8 | 9.7 | 0.00 | 0.00 | 0.00 | 85 | 1020.6 |